| time (UTC) | temp C | wind direction | speed KPH | gust KPH | rain 1hr cm | rain 24hr cm | rain mn cm | humidity % | barometer mb |
| 20260906084921 | 12 | 161 | 0.0 | 0.0 | 0.00 | 0.00 | 0.00 | 96 | 1018.6 |
| 20260906083921 | 12 | 161 | 0.0 | 0.0 | 0.00 | 0.00 | 0.00 | 96 | 1018.6 |
| 20260906082931 | 12 | 161 | 0.0 | 0.0 | 0.00 | 0.00 | 0.00 | 97 | 1018.9 |
| 20260906081922 | 12 | 161 | 0.0 | 0.0 | 0.00 | 0.00 | 0.00 | 97 | 1018.9 |
| 20260906080921 | 12 | 161 | 0.0 | 0.0 | 0.00 | 0.00 | 0.00 | 96 | 1018.8 |
| 20260906075921 | 12 | 161 | 0.0 | 0.0 | 0.00 | 0.00 | 0.00 | 96 | 1018.8 |
| 20260906074921 | 12 | 161 | 0.0 | 0.0 | 0.00 | 0.00 | 0.00 | 96 | 1018.7 |
| 20260906073921 | 12 | 161 | 0.0 | 0.0 | 0.00 | 0.00 | 0.00 | 96 | 1018.9 |
| 20260906072922 | 12 | 161 | 0.0 | 0.0 | 0.00 | 0.00 | 0.00 | 96 | 1018.9 |
| 20260906071921 | 12 | 161 | 0.0 | 0.0 | 0.00 | 0.00 | 0.00 | 96 | 1018.9 |
| 20260906070921 | 12 | 161 | 0.0 | 0.0 | 0.00 | 0.00 | 0.00 | 96 | 1018.9 |
| 20260906065921 | 12 | 161 | 0.0 | 0.0 | 0.00 | 0.03 | 0.00 | 96 | 1018.9 |
| 20260906064932 | 12 | 161 | 0.0 | 0.0 | 0.00 | 0.03 | 0.00 | 96 | 1018.9 |
| 20260906063922 | 12 | 161 | 0.0 | 0.0 | 0.00 | 0.03 | 0.00 | 96 | 1018.8 |
| 20260906062925 | 12 | 161 | 0.0 | 0.0 | 0.00 | 0.03 | 0.00 | 96 | 1018.8 |
| 20260906061921 | 12 | 161 | 0.0 | 0.0 | 0.00 | 0.03 | 0.00 | 96 | 1018.8 |
| 20260906060922 | 12 | 161 | 0.0 | 0.0 | 0.00 | 0.03 | 0.00 | 96 | 1018.8 |
| 20260906055921 | 12 | 161 | 0.0 | 0.0 | 0.00 | 0.03 | 0.00 | 95 | 1019.1 |
| 20260906054922 | 12 | 161 | 0.0 | 0.0 | 0.00 | 0.03 | 0.00 | 95 | 1019.1 |
| 20260906053922 | 12 | 161 | 0.0 | 0.0 | 0.00 | 0.03 | 0.00 | 95 | 1018.9 |
| 20260906052925 | 12 | 161 | 0.0 | 0.0 | 0.00 | 0.03 | 0.00 | 95 | 1018.9 |
| 20260906051923 | 12 | 161 | 0.0 | 0.0 | 0.00 | 0.03 | 0.00 | 95 | 1019.0 |
| 20260906050923 | 12 | 161 | 0.0 | 0.0 | 0.00 | 0.03 | 0.00 | 95 | 1019.0 |
| 20260906045932 | 13 | 161 | 0.0 | 0.0 | 0.00 | 0.03 | 0.03 | 95 | 1019.1 |
| 20260906044922 | 13 | 161 | 0.0 | 0.0 | 0.00 | 0.03 | 0.03 | 95 | 1019.1 |
| 20260906043922 | 13 | 161 | 0.0 | 0.0 | 0.00 | 0.03 | 0.03 | 95 | 1018.8 |
| 20260906042926 | 13 | 161 | 0.0 | 0.0 | 0.00 | 0.03 | 0.03 | 95 | 1018.8 |
| 20260906041923 | 13 | 161 | 0.0 | 0.0 | 0.00 | 0.03 | 0.03 | 94 | 1018.7 |
| 20260906040922 | 13 | 161 | 0.0 | 0.0 | 0.00 | 0.03 | 0.03 | 94 | 1018.6 |
| 20260906035923 | 13 | 161 | 0.0 | 0.0 | 0.00 | 0.03 | 0.03 | 94 | 1018.6 |
| 20260906034922 | 14 | 161 | 0.0 | 0.0 | 0.00 | 0.03 | 0.03 | 95 | 1018.2 |
| 20260906033922 | 14 | 161 | 0.0 | 0.0 | 0.00 | 0.03 | 0.03 | 95 | 1018.2 |
| 20260906032932 | 14 | 161 | 0.0 | 0.0 | 0.00 | 0.03 | 0.03 | 95 | 1018.1 |
| 20260906031923 | 14 | 161 | 0.0 | 0.0 | 0.00 | 0.03 | 0.03 | 95 | 1018.1 |
| 20260906030923 | 15 | 161 | 0.0 | 0.0 | 0.00 | 0.03 | 0.03 | 95 | 1018.1 |
| 20260906025926 | 15 | 161 | 0.0 | 0.0 | 0.00 | 0.03 | 0.03 | 95 | 1018.1 |
| 20260906024923 | 15 | 159 | 0.0 | 0.0 | 0.00 | 0.03 | 0.03 | 95 | 1018.0 |
| 20260906023922 | 15 | 159 | 0.0 | 0.0 | 0.00 | 0.03 | 0.03 | 95 | 1018.0 |
| 20260906022923 | 15 | 160 | 0.0 | 0.0 | 0.00 | 0.03 | 0.03 | 94 | 1018.1 |
| 20260906021932 | 15 | 160 | 0.0 | 0.0 | 0.00 | 0.03 | 0.03 | 94 | 1018.1 |
| 20260906010928 | 16 | 159 | 0.0 | 0.0 | 0.00 | 0.03 | 0.03 | 93 | 1017.3 |
| 20260906005928 | 17 | 159 | 0.0 | 0.0 | 0.00 | 0.03 | 0.03 | 92 | 1017.4 |
| 20260906004928 | 17 | 159 | 0.0 | 0.0 | 0.00 | 0.03 | 0.03 | 92 | 1017.4 |
| 20260906003925 | 17 | 159 | 0.0 | 0.0 | 0.00 | 0.03 | 0.03 | 92 | 1017.1 |
| 20260906002927 | 17 | 159 | 0.0 | 0.0 | 0.00 | 0.03 | 0.03 | 92 | 1017.1 |
| 20260906001925 | 17 | 159 | 0.0 | 0.0 | 0.00 | 0.03 | 0.03 | 91 | 1017.2 |
| 20260906000934 | 17 | 159 | 0.0 | 0.0 | 0.00 | 0.03 | 0.03 | 91 | 1017.2 |
| 20260905235924 | 17 | 159 | 0.0 | 1.6 | 0.00 | 0.03 | 0.03 | 88 | 1017.3 |
| 20260905234924 | 17 | 159 | 0.0 | 1.6 | 0.00 | 0.03 | 0.03 | 88 | 1017.3 |
| 20260905233924 | 18 | 159 | 0.0 | 1.6 | 0.00 | 0.03 | 0.03 | 87 | 1017.3 |
| 20260905232925 | 18 | 159 | 0.0 | 1.6 | 0.00 | 0.03 | 0.03 | 87 | 1017.3 |
| 20260905231924 | 18 | 154 | 0.0 | 3.2 | 0.00 | 0.03 | 0.03 | 83 | 1017.7 |
| 20260905230924 | 18 | 154 | 0.0 | 3.2 | 0.00 | 0.03 | 0.03 | 83 | 1017.7 |
| 20260905225924 | 19 | 254 | 0.0 | 1.6 | 0.00 | 0.03 | 0.03 | 84 | 1017.5 |
| 20260905224928 | 19 | 254 | 0.0 | 1.6 | 0.00 | 0.03 | 0.03 | 84 | 1017.5 |
| 20260905223925 | 20 | 189 | 0.0 | 3.2 | 0.00 | 0.03 | 0.03 | 83 | 1017.5 |
| 20260905222924 | 20 | 189 | 0.0 | 3.2 | 0.00 | 0.03 | 0.03 | 83 | 1017.5 |
| 20260905221925 | 21 | 203 | 0.0 | 3.2 | 0.00 | 0.03 | 0.03 | 81 | 1017.7 |
| 20260905220927 | 21 | 203 | 0.0 | 3.2 | 0.00 | 0.03 | 0.03 | 81 | 1017.7 |
| 20260905215928 | 21 | 197 | 0.0 | 1.6 | 0.00 | 0.03 | 0.03 | 80 | 1017.9 |
| 20260905214925 | 22 | 182 | 0.0 | 3.2 | 0.00 | 0.03 | 0.03 | 75 | 1017.9 |
| 20260905212924 | 22 | 199 | 1.6 | 1.6 | 0.00 | 0.03 | 0.03 | 78 | 1017.8 |
| 20260905211925 | 22 | 199 | 1.6 | 1.6 | 0.00 | 0.03 | 0.03 | 78 | 1017.8 |
| 20260905210924 | 22 | 182 | 0.0 | 6.4 | 0.00 | 0.03 | 0.03 | 77 | 1018.1 |
| 20260905205928 | 22 | 182 | 0.0 | 6.4 | 0.00 | 0.03 | 0.03 | 77 | 1018.1 |
| 20260905202925 | 22 | 268 | 0.0 | 1.6 | 0.00 | 0.03 | 0.03 | 80 | 1018.1 |
| 20260905201926 | 22 | 268 | 0.0 | 1.6 | 0.00 | 0.03 | 0.03 | 80 | 1018.1 |
| 20260905200935 | 21 | 275 | 0.0 | 1.6 | 0.00 | 0.03 | 0.03 | 84 | 1018.2 |
| 20260905195926 | 21 | 275 | 0.0 | 1.6 | 0.00 | 0.03 | 0.03 | 84 | 1018.2 |
| 20260905194928 | 21 | 275 | 0.0 | 1.6 | 0.00 | 0.03 | 0.03 | 84 | 1018.5 |
| 20260905193926 | 21 | 275 | 0.0 | 1.6 | 0.00 | 0.03 | 0.03 | 84 | 1018.5 |
| 20260905192925 | 20 | 199 | 0.0 | 0.0 | 0.00 | 0.03 | 0.03 | 85 | 1018.6 |
| 20260905191935 | 20 | 199 | 0.0 | 0.0 | 0.00 | 0.03 | 0.03 | 85 | 1018.6 |
| 20260905184935 | 19 | 344 | 0.0 | 1.6 | 0.00 | 0.03 | 0.03 | 88 | 1018.9 |
| 20260905183927 | 19 | 136 | 0.0 | 0.0 | 0.00 | 0.03 | 0.03 | 92 | 1019.0 |
| 20260905182925 | 19 | 136 | 0.0 | 0.0 | 0.00 | 0.03 | 0.03 | 92 | 1019.0 |
| 20260905181925 | 18 | 142 | 0.0 | 1.6 | 0.00 | 0.03 | 0.03 | 92 | 1018.9 |
| 20260905175925 | 18 | 139 | 0.0 | 1.6 | 0.00 | 0.03 | 0.03 | 92 | 1018.9 |
| 20260905174926 | 18 | 139 | 0.0 | 1.6 | 0.00 | 0.03 | 0.03 | 92 | 1018.9 |
| 20260905173926 | 17 | 186 | 0.0 | 3.2 | 0.00 | 0.03 | 0.03 | 94 | 1019.1 |
| 20260905172929 | 17 | 186 | 0.0 | 3.2 | 0.00 | 0.03 | 0.03 | 94 | 1019.1 |
| 20260905171927 | 17 | 302 | 0.0 | 1.6 | 0.00 | 0.03 | 0.03 | 95 | 1018.9 |
| 20260905170926 | 17 | 302 | 0.0 | 1.6 | 0.00 | 0.03 | 0.03 | 95 | 1018.9 |
| 20260905165926 | 17 | 245 | 0.0 | 0.0 | 0.00 | 0.03 | 0.03 | 96 | 1019.1 |
| 20260905164929 | 17 | 245 | 0.0 | 0.0 | 0.00 | 0.03 | 0.03 | 96 | 1019.1 |
| 20260905163927 | 16 | 245 | 0.0 | 0.0 | 0.00 | 0.03 | 0.03 | 97 | 1019.3 |
| 20260905162926 | 16 | 245 | 0.0 | 0.0 | 0.00 | 0.03 | 0.03 | 97 | 1019.3 |
| 20260905161927 | 16 | 202 | 0.0 | 0.0 | 0.00 | 0.03 | 0.03 | 97 | 1019.0 |
| 20260905160927 | 16 | 202 | 0.0 | 0.0 | 0.00 | 0.03 | 0.03 | 97 | 1019.0 |
| 20260905140928 | 15 | 326 | 0.0 | 0.0 | 0.00 | 0.03 | 0.03 | 98 | 1018.6 |
| 20260905135927 | 15 | 326 | 0.0 | 0.0 | 0.00 | 0.03 | 0.03 | 98 | 1018.6 |
| 20260905121927 | 14 | 327 | 0.0 | 3.2 | 0.00 | 0.03 | 0.03 | 97 | 1016.9 |
| 20260905120930 | 14 | 327 | 0.0 | 3.2 | 0.00 | 0.03 | 0.03 | 97 | 1016.9 |
| 20260905115930 | 13 | 328 | 0.0 | 0.0 | 0.00 | 0.03 | 0.03 | 97 | 1016.8 |
| 20260905114932 | 13 | 328 | 0.0 | 0.0 | 0.00 | 0.03 | 0.03 | 97 | 1016.8 |
| 20260905113928 | 13 | 263 | 0.0 | 0.0 | 0.00 | 0.03 | 0.03 | 97 | 1016.8 |
| 20260905111929 | 13 | 265 | 0.0 | 4.8 | 0.00 | 0.03 | 0.03 | 97 | 1016.8 |
| 20260905110928 | 13 | 265 | 0.0 | 4.8 | 0.00 | 0.03 | 0.03 | 97 | 1016.8 |
| 20260905105929 | 13 | 277 | 0.0 | 1.6 | 0.00 | 0.03 | 0.03 | 97 | 1016.8 |
| 20260905104931 | 13 | 277 | 0.0 | 1.6 | 0.00 | 0.03 | 0.03 | 97 | 1016.8 |
| 20260905103928 | 13 | 277 | 0.0 | 1.6 | 0.00 | 0.03 | 0.03 | 97 | 1016.7 |
| 20260905102929 | 13 | 277 | 0.0 | 1.6 | 0.00 | 0.03 | 0.03 | 97 | 1016.7 |
| 20260905101931 | 14 | 276 | 0.0 | 0.0 | 0.00 | 0.03 | 0.03 | 97 | 1016.9 |
| 20260905100928 | 14 | 276 | 0.0 | 0.0 | 0.00 | 0.03 | 0.03 | 97 | 1016.9 |
| 20260905095930 | 14 | 276 | 0.0 | 0.0 | 0.00 | 0.03 | 0.03 | 97 | 1017.0 |
| 20260905094929 | 14 | 276 | 0.0 | 0.0 | 0.00 | 0.03 | 0.03 | 97 | 1017.0 |
| 20260905093928 | 14 | 276 | 0.0 | 0.0 | 0.00 | 0.03 | 0.03 | 97 | 1017.0 |
| 20260905092929 | 14 | 276 | 0.0 | 0.0 | 0.00 | 0.03 | 0.03 | 97 | 1017.0 |
| 20260905091929 | 14 | 276 | 0.0 | 4.8 | 0.00 | 0.03 | 0.03 | 97 | 1017.1 |
| 20260905085930 | 14 | 276 | 0.0 | 1.6 | 0.00 | 0.03 | 0.03 | 97 | 1017.2 |